Location: Ferchesar
(52.6477°N, 12.4298°E)
Time: 10:06:16
(UTC+01:00)

Tiros 1 despin weight - Pass Details

Date: 13 December 2021
Orbit: 592 x 641 km, 48.2° (Epoch: 19 January)

Event Time Altitude Azimuth Distance (km) Brightness Sun altitude
Rises 10:21:59 0° 226° (SW) 2,865 ? 11.0°
Reaches altitude 10° 10:24:30 10° 215° (SW) 1,954 ? 11.1°
Maximum altitude 10:28:21 29° 156° (SSE) 1,124 ? 11.3°
Drops below altitude 10° 10:32:10 10° 97° (E) 1,937 ? 11.6°
Sets 10:34:40 0° 86° (E) 2,835 ? 11.7°
